Wind_Speed
50 49 48 47 45 45 44 42 41 39 39 38 37 37 37 37 37 36 36 36 36 36 37 37 38 40 41 42 43 43 44 44 45 45 46 48 49 50 51 52 53 54 54
50 50 49 48 47 46 45 43 42 41 40 39 39 39 38 38 37 37 37 37 37 37 38 38 39 41 41 42 43 44 44 45 45 45 47 48 49 50 52 53 53 54 55
51 50 50 49 48 46 46 45 44 42 42 41 41 40 39 39 38 37 37 37 38 38 38 39 40 41 42 43 43 44 45 45 46 46 47 48 49 51 52 53 54 55 56
53 51 50 50 49 48 47 47 46 45 44 43 42 41 40 40 39 38 38 38 38 38 39 40 41 41 42 43 44 44 44 45 46 47 48 49 50 51 53 53 54 55 56
54 53 51 50 50 49 48 48 47 46 45 44 43 42 41 40 39 39 38 38 38 39 39 40 41 41 42 43 44 44 44 45 46 47 48 49 51 52 53 54 54 54 55
54 53 52 51 51 50 49 49 48 47 46 45 44 43 42 41 40 39 39 39 39 39 40 40 41 41 42 43 43 44 45 45 46 47 48 50 51 53 53 54 54 54 55
54 53 53 52 51 51 50 49 48 47 46 45 44 43 41 41 40 39 39 40 40 40 40 40 41 41 43 43 43 44 45 45 46 47 49 50 52 53 53 53 54 54 56
54 53 52 52 52 51 50 49 48 47 46 46 45 43 42 41 41 40 40 41 40 39 39 40 41 41 41 42 42 43 43 44 46 47 49 51 52 52 52 53 53 55 56
55 53 53 52 52 52 51 50 49 48 47 45 44 43 42 42 42 41 41 40 40 40 40 40 41 41 41 42 42 43 44 45 47 48 49 51 51 51 52 53 53 54 55
55 54 54 53 52 52 51 50 49 48 47 46 44 44 43 43 42 41 40 41 41 41 40 40 41 41 41 42 42 43 44 45 47 48 50 50 50 50 51 52 53 54 56
55 55 54 53 52 52 51 50 50 49 48 46 46 45 44 43 42 41 41 41 41 41 41 41 41 40 41 41 42 43 44 45 47 48 49 48 48 49 51 52 53 55 56
55 54 53 53 53 53 52 50 50 50 48 47 47 46 45 43 41 41 41 41 41 41 41 40 40 40 40 41 42 43 44 45 47 47 47 47 48 49 50 51 53 54 55
54 54 52 51 52 52 51 50 49 49 49 48 48 47 45 43 43 42 41 40 40 40 40 39 39 39 39 40 41 42 43 45 46 46 46 47 48 49 50 51 52 54 55
53 54 53 52 51 51 50 50 48 48 47 47 46 45 45 44 43 42 41 40 39 39 39 39 38 38 39 40 41 42 43 44 44 45 45 47 47 48 49 50 51 52 53
51 52 53 53 52 51 50 49 48 48 47 46 45 45 44 44 42 42 41 39 38 38 38 38 38 38 39 40 41 41 42 43 43 44 45 45 45 46 47 49 50 51 51
48 49 50 51 51 50 50 49 48 47 47 46 45 44 43 42 41 40 39 38 38 37 37 37 38 38 38 39 40 40 41 42 42 42 43 44 44 44 46 48 49 49 48
46 46 46 47 48 48 48 48 48 47 46 45 43 42 42 41 40 40 39 38 38 38 37 37 37 37 38 38 39 39 40 40 40 41 42 42 42 43 45 47 47 46 46
46 45 45 46 46 47 47 46 46 46 45 43 41 41 40 40 40 39 39 38 38 38 37 37 37 36 37 37 37 38 38 39 39 39 40 40 41 43 44 45 45 44 44
46 46 46 46 46 46 45 45 44 43 43 41 40 40 40 39 38 37 36 36 36 37 36 36 36 35 35 35 36 37 37 37 37 37 38 39 40 42 43 43 43 43 42
44 43 43 44 43 43 43 42 42 42 42 42 41 41 40 39 37 36 35 35 34 34 34 34 34 34 34 35 36 36 36 36 36 36 37 38 39 40 41 42 42 41 41
43 42 42 41 41 41 40 40 39 39 40 41 41 40 38 37 37 36 35 34 34 33 32 32 32 33 33 34 34 35 35 35 35 36 36 38 38 39 40 40 40 39 39
42 41 41 40 40 40 39 39 39 38 38 37 36 36 35 35 35 34 34 34 34 33 33 33 32 33 33 32 33 34 34 34 34 35 36 36 37 38 39 38 38 38 37
41 40 39 39 38 38 38 38 38 37 37 36 35 33 32 32 32 32 32 32 32 32 32 32 31 32 32 33 33 33 33 33 33 34 35 36 37 37 37 36 36 36 36
39 38 38 37 37 37 37 37 37 36 35 34 33 32 32 31 30 30 30 31 31 31 30 30 31 31 31 32 33 33 32 32 33 33 33 34 35 35 35 35 35 34 34
36 36 36 36 35 35 35 35 34 34 33 32 32 32 31 30 29 29 29 29 29 29 29 29 29 29 29 30 31 31 30 31 31 32 32 33 34 33 33 33 33 33 33
34 34 35 34 33 33 33 34 33 32 31 31 31 30 30 30 29 29 29 28 27 27 28 28 27 27 28 28 28 29 29 29 30 30 31 32 32 32 32 32 31 31 30
Wind_Direction
226 226 227 229 230 232 235 237 240 242 245 247 250 254 257 260 264 267 270 273 277 281 285 289 293 296 299 301 302 303 305 307 308 309 310 311 312 313 314 315 316 316 317
227 227 228 229 231 233 235 237 240 242 245 248 250 253 257 260 263 266 270 273 276 280 284 288 292 295 298 300 302 303 305 306 308 309 310 311 312 313 314 315 316 316 317
227 229 230 231 232 234 236 237 239 242 245 248 250 253 256 258 262 266 269 272 276 280 284 288 292 295 297 299 301 303 305 306 308 309 311 312 312 313 314 315 316 317 317
228 230 231 232 233 234 236 238 240 242 244 247 250 252 255 258 261 265 268 272 276 280 283 287 291 294 296 299 301 302 304 306 308 310 311 312 312 313 314 315 316 316 317
228 230 232 233 234 235 236 238 240 242 244 246 249 251 254 257 261 264 267 272 276 279 283 287 290 293 296 298 299 301 304 306 308 310 311 312 312 313 315 316 316 317 318
228 230 232 233 234 235 236 238 240 242 244 246 248 251 254 257 260 263 268 271 275 279 283 286 289 292 295 297 298 300 304 306 308 309 311 312 313 314 315 316 317 317 318
228 229 231 232 234 235 236 238 239 241 243 245 248 251 253 256 259 263 267 270 274 278 282 286 289 292 294 295 297 301 303 306 308 309 311 312 313 314 315 316 317 318 319
229 229 230 232 233 235 236 238 239 240 243 245 248 251 253 256 259 263 266 270 275 278 282 285 289 292 293 295 298 301 303 306 307 309 311 312 313 314 316 317 318 319 320
229 230 230 232 234 234 236 237 239 241 243 245 248 251 253 256 259 263 266 270 274 278 281 285 288 291 293 296 298 301 303 305 308 309 311 312 314 315 316 317 318 320 321
227 229 230 232 233 235 235 236 239 241 243 245 247 250 253 256 259 262 266 270 274 277 281 284 287 290 293 296 297 300 302 305 308 309 311 313 315 316 317 318 320 321 322
227 228 230 231 233 234 236 237 238 240 242 244 246 249 253 256 260 263 267 271 274 277 280 283 286 289 292 295 297 300 303 305 308 310 312 314 315 317 318 319 321 322 323
228 228 230 231 232 233 235 237 239 240 241 244 247 250 253 256 260 264 268 271 274 277 280 283 286 290 293 295 298 301 303 306 309 310 312 314 316 318 319 321 323 323 324
229 229 229 231 234 234 235 237 239 241 243 245 248 251 253 257 260 264 267 269 272 276 280 284 287 291 293 296 299 301 304 307 309 310 312 314 316 318 320 322 323 324 325
229 229 230 231 234 235 236 237 239 241 244 246 249 251 254 257 260 263 266 268 272 276 280 283 287 290 293 296 299 301 304 307 309 310 312 315 317 318 321 323 324 325 327
229 230 231 233 235 236 236 238 239 241 243 246 248 250 253 256 260 263 266 269 272 276 279 282 286 290 293 297 299 301 304 306 308 311 313 315 317 319 321 323 325 327 328
231 231 232 234 235 236 237 238 238 240 242 244 246 249 253 256 259 262 265 269 272 276 278 282 286 290 293 296 299 301 304 306 309 312 314 316 319 321 322 324 326 328 329
230 232 233 234 236 237 237 237 238 241 242 243 246 249 252 255 259 262 265 270 273 277 279 282 286 289 293 297 299 301 304 306 309 312 315 317 319 321 323 325 327 329 331
230 232 234 235 236 236 238 239 239 240 241 243 246 249 252 255 258 261 265 269 273 276 279 282 286 290 293 296 299 301 304 307 310 313 315 317 319 321 324 326 328 330 331
231 233 234 235 236 236 238 238 239 240 242 245 248 250 253 256 258 262 266 270 272 275 278 282 285 290 293 296 299 302 305 307 310 313 316 318 320 322 324 327 329 330 332
231 233 234 235 234 234 236 238 240 242 245 247 249 251 253 255 259 263 266 268 271 275 278 281 284 289 293 297 300 304 306 307 310 313 316 318 320 323 325 327 329 331 332
231 231 232 232 233 233 235 237 238 240 243 245 248 250 252 255 259 262 264 266 269 273 277 280 284 289 293 297 301 304 306 308 310 313 315 318 320 323 326 328 329 331 332
229 229 230 231 233 233 234 237 239 240 242 244 246 248 252 256 259 262 264 265 268 272 276 280 284 289 293 296 301 304 306 307 310 312 315 317 321 323 326 327 329 330 332
228 228 230 231 232 233 234 236 238 240 243 245 247 249 252 255 258 261 263 265 267 271 276 279 283 287 291 296 300 303 304 306 309 312 314 317 321 323 326 327 329 330 332
227 227 229 231 233 234 234 234 236 238 241 242 245 248 251 254 258 260 262 265 267 271 274 278 282 285 290 294 298 301 303 306 309 312 314 318 321 324 326 327 328 330 332
224 225 226 227 229 230 231 232 234 236 238 240 243 247 250 253 256 259 261 264 267 269 273 278 281 285 289 293 297 300 302 305 309 312 315 319 322 324 325 326 328 330 332
223 223 224 224 226 228 231 232 233 235 237 239 242 247 249 252 255 259 262 264 265 268 274 277 279 284 288 293 296 299 301 305 310 313 316 319 322 323 324 325 327 330 332
Height
5688 5694 5701 5706 5712 5716 5721 5726 5729 5733 5736 5739 5741 5743 5745 5746 5747 5748 5748 5748 5747 5746 5745 5743 5740 5737 5734 5730 5726 5722 5718 5713 5709 5704 5698 5691 5685 5678 5671 5664 5656 5649 5641
5678 5685 5691 5697 5702 5707 5712 5716 5720 5724 5727 5730 5732 5735 5736 5738 5739 5740 5740 5740 5739 5738 5736 5734 5732 5728 5725 5722 5718 5714 5709 5705 5700 5695 5689 5683 5676 5669 5662 5654 5647 5639 5631
5668 5675 5681 5687 5693 5698 5703 5707 5711 5714 5718 5721 5723 5726 5728 5729 5730 5731 5731 5731 5731 5729 5728 5726 5723 5720 5717 5713 5709 5705 5701 5696 5691 5686 5680 5674 5667 5661 5653 5645 5637 5628 5620
5658 5665 5672 5678 5684 5689 5693 5697 5701 5705 5708 5712 5714 5717 5719 5720 5721 5722 5723 5722 5722 5721 5719 5717 5715 5712 5709 5705 5701 5697 5692 5688 5682 5677 5671 5665 5659 5652 5644 5637 5628 5619 5611
5648 5655 5662 5668 5673 5678 5683 5687 5691 5695 5699 5702 5705 5707 5709 5711 5713 5713 5714 5713 5713 5712 5710 5709 5706 5703 5700 5696 5692 5688 5684 5679 5674 5668 5663 5656 5650 5642 5635 5627 5619 5611 5602
5638 5645 5652 5657 5663 5668 5673 5677 5681 5685 5688 5692 5695 5698 5700 5702 5704 5704 5704 5704 5704 5703 5702 5700 5697 5694 5691 5687 5683 5679 5675 5670 5665 5659 5654 5647 5640 5633 5625 5617 5609 5602 5594
5627 5634 5640 5646 5652 5658 5662 5667 5671 5675 5678 5682 5685 5688 5690 5692 5694 5695 5695 5695 5695 5694 5692 5690 5688 5685 5682 5678 5674 5670 5666 5661 5656 5651 5645 5638 5631 5624 5616 5608 5599 5590 5582
5616 5623 5629 5635 5641 5647 5652 5656 5661 5665 5668 5672 5675 5678 5681 5683 5684 5685 5685 5685 5685 5685 5683 5681 5679 5676 5673 5669 5666 5661 5657 5652 5647 5642 5636 5629 5621 5613 5605 5598 5589 5581 5571
5605 5612 5618 5624 5630 5636 5641 5646 5650 5654 5658 5662 5665 5668 5671 5673 5675 5675 5676 5676 5676 5675 5674 5672 5670 5667 5664 5660 5657 5653 5649 5644 5638 5632 5625 5618 5611 5603 5596 5588 5580 5571 5563
5593 5601 5607 5613 5619 5625 5630 5635 5640 5644 5648 5652 5655 5658 5661 5663 5665 5666 5666 5666 5666 5666 5664 5663 5661 5658 5655 5651 5648 5644 5640 5635 5629 5623 5616 5609 5602 5594 5586 5578 5570 5561 5552
5582 5589 5596 5602 5608 5614 5619 5624 5629 5634 5638 5642 5646 5649 5651 5654 5655 5656 5656 5656 5656 5655 5654 5653 5651 5649 5645 5642 5638 5634 5630 5625 5619 5613 5607 5600 5593 5585 5577 5569 5560 5551 5542
5571 5578 5585 5591 5597 5603 5608 5613 5618 5623 5627 5631 5635 5638 5641 5643 5645 5646 5647 5647 5646 5646 5645 5644 5642 5639 5636 5633 5629 5625 5620 5615 5610 5604 5598 5591 5584 5577 5568 5560 5551 5541 5532
5560 5567 5574 5580 5586 5592 5598 5603 5608 5613 5617 5621 5625 5628 5631 5633 5635 5636 5636 5637 5636 5636 5635 5634 5632 5630 5627 5624 5620 5616 5611 5606 5601 5595 5589 5582 5575 5568 5559 5551 5541 5531 5522
5549 5556 5563 5570 5575 5581 5587 5593 5598 5602 5607 5611 5614 5618 5620 5623 5625 5625 5626 5627 5627 5626 5626 5625 5623 5620 5618 5615 5611 5607 5602 5597 5592 5586 5580 5573 5566 5559 5551 5542 5533 5524 5514
5539 5546 5552 5559 5564 5570 5576 5582 5587 5592 5596 5601 5604 5607 5610 5613 5614 5616 5616 5617 5617 5617 5616 5615 5613 5611 5609 5605 5602 5598 5593 5588 5582 5577 5571 5564 5557 5550 5543 5535 5526 5517 5507
5528 5535 5541 5548 5554 5559 5565 5571 5575 5581 5585 5589 5593 5597 5599 5602 5604 5605 5607 5607 5607 5607 5607 5606 5604 5602 5599 5596 5593 5588 5584 5579 5574 5568 5562 5556 5549 5542 5535 5527 5518 5510 5501
5518 5525 5531 5537 5543 5549 5554 5560 5565 5570 5574 5579 5583 5586 5589 5592 5593 5595 5596 5597 5597 5597 5597 5597 5595 5593 5590 5587 5583 5579 5575 5570 5565 5560 5554 5548 5541 5535 5528 5520 5511 5503 5494
5507 5514 5520 5526 5532 5538 5544 5549 5554 5559 5564 5568 5572 5575 5578 5581 5583 5584 5586 5587 5587 5588 5588 5587 5586 5583 5581 5578 5574 5570 5566 5561 5557 5552 5546 5540 5534 5527 5520 5513 5505 5496 5488
5496 5503 5509 5515 5521 5527 5533 5538 5543 5549 5553 5558 5562 5565 5568 5570 5572 5574 5576 5577 5578 5578 5578 5577 5576 5574 5571 5569 5565 5561 5557 5553 5549 5544 5538 5533 5527 5520 5513 5506 5498 5490 5483
5486 5492 5498 5505 5510 5516 5522 5528 5533 5538 5543 5548 5552 5555 5557 5560 5562 5564 5566 5568 5568 5568 5568 5567 5566 5564 5562 5560 5556 5553 5549 5545 5541 5536 5531 5525 5520 5513 5507 5500 5492 5485 5477
5476 5482 5488 5494 5500 5506 5512 5518 5523 5528 5533 5537 5541 5544 5547 5549 5552 5554 5556 5557 5558 5559 5559 5558 5557 5556 5554 5551 5548 5545 5541 5537 5533 5528 5524 5518 5513 5507 5500 5493 5486 5479 5472
5466 5472 5479 5485 5491 5497 5502 5508 5513 5518 5523 5527 5530 5533 5536 5539 5542 5544 5546 5548 5548 5549 5549 5549 5548 5547 5545 5543 5540 5537 5533 5529 5525 5521 5516 5511 5506 5500 5494 5487 5481 5474 5468
5456 5463 5469 5475 5481 5487 5493 5498 5503 5508 5513 5517 5521 5524 5527 5530 5532 5535 5537 5538 5539 5540 5540 5540 5539 5538 5536 5534 5532 5529 5525 5522 5518 5514 5509 5504 5499 5493 5487 5482 5476 5470 5464
5447 5454 5460 5466 5472 5478 5483 5489 5494 5499 5504 5508 5512 5515 5518 5521 5523 5526 5528 5529 5530 5530 5531 5531 5530 5529 5528 5526 5523 5520 5517 5514 5510 5506 5502 5498 5492 5487 5482 5476 5471 5465 5459
5438 5445 5451 5457 5463 5469 5475 5480 5485 5490 5495 5499 5503 5506 5509 5512 5515 5517 5519 5520 5521 5522 5522 5522 5522 5521 5519 5517 5515 5512 5509 5506 5503 5499 5495 5491 5486 5481 5476 5471 5466 5461 5455
5431 5437 5443 5449 5455 5461 5467 5472 5477 5482 5486 5490 5494 5498 5501 5504 5506 5508 5510 5511 5512 5513 5513 5513 5513 5512 5511 5509 5507 5504 5502 5499 5496 5492 5488 5484 5480 5475 5471 5466 5461 5456 5451